Regional Weather Roundup
Issued by NWS

Home | Current Version | Previous Version | Text Only | Print | Product List | Glossary On
Versions: 1 2 3 4 5 6 7 8 9 10 11 12 13 14 15 16 17 18 19 20 21 22 23 24 25 26 27 28
000
ASUS45 KPSR 210410
RWRAZ

ARIZONA HOURLY REGIONAL WEATHER ROUNDUP
NATIONAL WEATHER SERVICE PHOENIX AZ
900 PM MST FRI OCT 20 2017

NOTE: FAIR INDICATES FEW OR NO CLOUDS BELOW 12,000 FEET WITH NO
SIGNIFICANT WEATHER AND/OR OBSTRUCTIONS TO VISIBILITY.

AZZ001>003-036-210500-
NORTHWEST ARIZONA

CITY           SKY/WX    TMP DP  RH WIND       PRES   REMARKS
BULLHEAD CITY  CLEAR     73  34  23 SE9       29.72R
KINGMAN        CLEAR     57  33  40 SE12      29.85R
$$

AZZ004>008-015-016-018-210500-
NORTH CENTRAL ARIZONA

CITY           SKY/WX    TMP DP  RH WIND       PRES   REMARKS
GRAND CANYON   CLOUDY    48  35  60 SW8       29.97R
WILLIAMS       MOCLDY    52  36  54 SW10G17   29.98S
PRESCOTT       PTCLDY    59  42  53 SW13      29.94R
FLAGSTAFF      PTCLDY    50  40  68 SW17G24   29.97F
PAYSON         CLEAR     55  39  54 CALM      29.95R
PAGE           PTCLDY    62  35  36 NW13      29.81R
$$

AZZ009>014-017-210500-
NORTHEAST ARIZONA

CITY           SKY/WX    TMP DP  RH WIND       PRES   REMARKS
WINSLOW        CLEAR     61  41  47 SW14G23   29.88R
SAINT JOHNS    PTCLDY    62  36  37 SW20G28   29.87R
WINDOW ROCK    PTCLDY    56  29  35 SW18      29.91R
SHOW LOW       CLEAR     57  36  44 SW20      29.95S
$$

AZZ540-542>544-546-548-210500-
GREATER PHOENIX AREA

CITY           SKY/WX    TMP DP  RH WIND       PRES   REMARKS
PHOENIX        PTCLDY    79  45  29 W14       29.76R
BUCKEYE        PTCLDY    73  39  29 W8        29.77R
LUKE AFB       CLEAR     75  44  32 W10       29.75R
DEER VALLEY    CLEAR     73  45  36 S5        29.77R
SCOTTSDALE     CLEAR     76  44  32 W7        29.80R
MESA-GATEWAY   CLEAR     73  43  33 W6        29.78R
CHANDLER       CLEAR     77  45  31 SW7       29.76R
$$

AZZ539-553-210500-
SOUTHWEST MARICOPA COUNTY AND PINAL COUNTY

CITY           SKY/WX    TMP DP  RH WIND       PRES   REMARKS
CASA GRANDE    NOT AVBL
GILA BEND      PTCLDY    73  41  31 SW6       29.77R
$$

AZZ503-504-507>509-210500-
SOUTHEAST ARIZONA

CITY           SKY/WX    TMP DP  RH WIND       PRES   REMARKS
TUCSON         CLEAR     75  39  27 W8        29.87R
DAVIS-MONTHAN  CLEAR     75  39  27 NW7       29.86R
NOGALES        CLEAR     66  46  48 SW5       29.96R
SIERRA VISTA   CLEAR     69  44  39 W7        29.97R
DOUGLAS        CLEAR     69  44  40 SW12      29.94R
SAFFORD        CLEAR     74  39  28 NW14      29.80R
$$

AZZ532-210500-
SOUTHWEST ARIZONA

CITY           SKY/WX    TMP DP  RH WIND       PRES   REMARKS
YUMA           PTCLDY    70  48  45 W14       29.79R
$$

CAZ041-043-047-048-061-525>527-560>570-210500-
SOUTHERN CALIFORNIA

CITY           SKY/WX    TMP DP  RH WIND       PRES   REMARKS
DOWNTOWN L.A.  CLEAR     67  54  63 E5        29.91R
L.A. AIRPORT   CLEAR     65  56  72 NE7       29.92R
SAN DIEGO      MOCLDY    66  54  65 SW7       29.98R
BURBANK        CLEAR     66  29  24 NW5       29.92R
ONTARIO        PTCLDY    61  54  77 W8        29.92R
RIVERSIDE      CLEAR     62  55  77 CALM      29.93R
PALM SPRINGS   CLEAR     76  46  34 W10       29.78R
EL CENTRO NAS  CLEAR     70  46  42 W21       29.83R
IMPERIAL       CLEAR     70  47  43 W24G39    29.77F
BLYTHE         CLEAR     71  51  49 SW9       29.75S
NEEDLES        CLEAR     77  34  21 W10       29.75R
$$

NVZ020-UTZ003-210500-
SOUTHERN NEVADA-UTAH

CITY           SKY/WX    TMP DP  RH WIND       PRES   REMARKS
LAS VEGAS      MOCLDY    73  15  11 NW22G28   29.79R
SALT LAKE CITY PTCLDY    45  29  53 N7        29.96R
$$

NMZ009-TXZ055-210500-
NEW MEXICO-WEST TEXAS

CITY           SKY/WX    TMP DP  RH WIND       PRES   REMARKS
ALBUQUERQUE    MOCLDY    64  32  30 S14       29.83R
EL PASO        PTCLDY    76  38  25 SW12      29.87R
$$


........................KEY........................
SKY/WX - SKY CONDITION/WEATHER
TMP    - TEMPERATURE IN FAHRENHEIT
DP     - DEW POINT IN FAHRENHEIT
RH     - RELATIVE HUMIDITY IN PERCENT
WIND   - DIRECTION AND SPEED IN MILES PER HOUR (MPH)
VRB    - VARIABLE WIND DIRECTION
PRES   - MEAN SEA LEVEL PRESSURE IN INCHES OF MERCURY
         F - FALLING PRESSURE   R - RISING PRESSURE
         S - STEADY PRESSURE
VSB    - VISIBILITY IN MILES
HX     - HEAT INDEX IN FAHRENHEIT
WCI    - WIND CHILL INDEX IN FAHRENHEIT
TC     - TEMPERATURE IN CELSIUS WHICH IS ALSO KNOWN AS
         TEMPERATURE IN CENTIGRADE
AFB    - AIR FORCE BASE
         LUKE AFB IS LUKE AIR FORCE BASE
         DAVIS-MONTHAN IS DAVIS-MONTHAN AIR FORCE BASE
NAS    - NAVAL AIR STATION
         EL CENTRO NAS IS EL CENTRO NAVAL AIR STATION
N/A    - NOT AVAILABLE





USA.gov is the U.S. government's official web portal to all federal, state and local government web resources and services.